| time (UTC) | temp F | wind direction | speed MPH | gust MPH | rain 1hr in | rain 24hr in | rain mn in | humidity % | barometer mb |
| 20260504120120 | 59 | 144 | 6.0 | 16.0 | 0.00 | 0.01 | 0.01 | 80 | 1007.2 |
| 20260504110105 | 58 | 272 | 0.0 | 0.0 | 0.00 | 0.01 | 0.01 | 87 | 1006.7 |
| 20260504081549 | 61 | 274 | 0.0 | 0.0 | 0.00 | 0.07 | 0.01 | 77 | 1006.8 |
| 20260504044539 | 62 | 250 | 1.0 | 6.0 | 0.00 | 0.24 | 0.01 | 73 | 1006.9 |
| 20260504043039 | 62 | 215 | 0.0 | 2.0 | 0.00 | 0.24 | 0.01 | 74 | 1006.9 |
| 20260504041537 | 62 | 236 | 0.0 | 7.0 | 0.00 | 0.24 | 0.01 | 76 | 1007.0 |
| 20260504040041 | 62 | 215 | 0.0 | 3.0 | 0.00 | 0.24 | 0.01 | 75 | 1007.0 |
| 20260504034536 | 62 | 186 | 0.0 | 3.0 | 0.00 | 0.26 | 0.01 | 77 | 1007.1 |
| 20260504033046 | 62 | 265 | 0.0 | 8.0 | 0.00 | 0.26 | 0.01 | 76 | 1007.3 |
| 20260504031533 | 63 | 219 | 1.0 | 12.0 | 0.00 | 0.26 | 0.01 | 72 | 1007.6 |
| 20260504030031 | 64 | 96 | 1.0 | 11.0 | 0.00 | 0.26 | 0.01 | 73 | 1007.5 |
| 20260504024542 | 64 | 329 | 1.0 | 11.0 | 0.00 | 0.28 | 0.01 | 73 | 1007.6 |
| 20260504023027 | 63 | 265 | 2.0 | 11.0 | 0.00 | 0.28 | 0.01 | 75 | 1007.9 |
| 20260504021525 | 63 | 278 | 2.0 | 10.0 | 0.00 | 0.28 | 0.01 | 77 | 1008.3 |
| 20260504020027 | 63 | 259 | 2.0 | 10.0 | 0.00 | 0.28 | 0.01 | 77 | 1008.4 |
| 20260504014524 | 64 | 200 | 0.0 | 10.0 | 0.00 | 0.34 | 0.01 | 74 | 1008.6 |
| 20260504013021 | 64 | 256 | 0.0 | 11.0 | 0.00 | 0.34 | 0.01 | 79 | 1008.7 |
| 20260504011520 | 63 | 182 | 0.0 | 6.0 | 0.00 | 0.34 | 0.01 | 80 | 1008.8 |
| 20260504010015 | 62 | 143 | 0.0 | 2.0 | 0.00 | 0.34 | 0.01 | 83 | 1009.0 |
| 20260504004529 | 61 | 191 | 0.0 | 4.0 | 0.00 | 0.36 | 0.01 | 85 | 1009.2 |
| 20260504003009 | 60 | 194 | 0.0 | 0.0 | 0.00 | 0.36 | 0.01 | 87 | 1009.2 |
| 20260504001507 | 60 | 254 | 0.0 | 0.0 | 0.00 | 0.36 | 0.01 | 89 | 1009.1 |
| 20260504000004 | 59 | 195 | 0.0 | 0.0 | 0.00 | 0.36 | 0.01 | 96 | 1009.1 |
| 20260503234503 | 58 | 167 | 0.0 | 0.0 | 0.00 | 0.36 | 0.01 | 96 | 1009.2 |
| 20260503233059 | 56 | 130 | 0.0 | 0.0 | 0.00 | 0.36 | 0.01 | 96 | 1009.2 |
| 20260503231559 | 55 | 130 | 0.0 | 0.0 | 0.00 | 0.36 | 0.01 | 96 | 1009.0 |
| 20260503230057 | 54 | 130 | 0.0 | 0.0 | 0.00 | 0.36 | 0.01 | 95 | 1009.0 |
| 20260503224555 | 52 | 130 | 0.0 | 0.0 | 0.00 | 0.36 | 0.01 | 96 | 1009.0 |
| 20260503223053 | 51 | 130 | 0.0 | 0.0 | 0.00 | 0.36 | 0.01 | 95 | 1009.0 |
| 20260503221554 | 50 | 130 | 0.0 | 0.0 | 0.00 | 0.36 | 0.01 | 95 | 1008.9 |
| 20260503220048 | 50 | 130 | 0.0 | 0.0 | 0.00 | 0.36 | 0.01 | 94 | 1008.9 |
| 20260503214546 | 50 | 130 | 0.0 | 0.0 | 0.00 | 0.36 | 0.01 | 94 | 1008.9 |
| 20260503213044 | 51 | 130 | 0.0 | 0.0 | 0.00 | 0.36 | 0.01 | 94 | 1008.7 |
| 20260503211542 | 51 | 130 | 0.0 | 0.0 | 0.01 | 0.36 | 0.01 | 94 | 1008.6 |
| 20260503210038 | 51 | 130 | 0.0 | 0.0 | 0.01 | 0.36 | 0.01 | 94 | 1008.5 |
| 20260503204535 | 52 | 130 | 0.0 | 0.0 | 0.01 | 0.36 | 0.01 | 94 | 1008.4 |
| 20260503203033 | 53 | 130 | 0.0 | 0.0 | 0.01 | 0.36 | 0.01 | 94 | 1008.4 |
| 20260503201532 | 53 | 130 | 0.0 | 0.0 | 0.00 | 0.35 | 0.00 | 94 | 1008.5 |
| 20260503200030 | 53 | 130 | 0.0 | 0.0 | 0.00 | 0.35 | 0.00 | 95 | 1008.5 |
| 20260503194533 | 53 | 130 | 0.0 | 0.0 | 0.00 | 0.35 | 0.00 | 94 | 1008.4 |
| 20260503193036 | 54 | 130 | 0.0 | 0.0 | 0.00 | 0.35 | 0.00 | 95 | 1008.3 |
| 20260503191526 | 54 | 130 | 0.0 | 0.0 | 0.00 | 0.35 | 0.00 | 95 | 1008.2 |
| 20260503190034 | 54 | 130 | 0.0 | 0.0 | 0.00 | 0.35 | 0.00 | 95 | 1008.1 |
| 20260503184524 | 54 | 130 | 0.0 | 0.0 | 0.00 | 0.35 | 0.00 | 95 | 1008.3 |
| 20260503183022 | 54 | 130 | 0.0 | 0.0 | 0.00 | 0.35 | 0.00 | 95 | 1008.2 |
| 20260503181520 | 54 | 130 | 0.0 | 0.0 | 0.00 | 0.35 | 0.00 | 95 | 1008.3 |
| 20260503180020 | 53 | 130 | 0.0 | 0.0 | 0.00 | 0.35 | 0.00 | 95 | 1008.6 |
| 20260503174521 | 53 | 130 | 0.0 | 0.0 | 0.00 | 0.35 | 0.00 | 95 | 1008.5 |
| 20260503173021 | 53 | 130 | 0.0 | 0.0 | 0.00 | 0.35 | 0.00 | 95 | 1008.5 |
| 20260503171516 | 54 | 130 | 0.0 | 0.0 | 0.00 | 0.35 | 0.00 | 94 | 1008.6 |
| 20260503140106 | 57 | 130 | 0.0 | 0.0 | 0.00 | 0.35 | 0.00 | 94 | 1009.0 |